Location: Izdebno
(52.6670°N, 16.2170°E)
Time: 07:04:32
(UTC+02:00)

Vanguard 1 - Pass Details

Date: 27 February 2024
Orbit: 653 x 3825 km, 34.2° (Epoch: 22 April)

Event Time Altitude Azimuth Distance (km) Brightness Sun altitude
Rises 21:04:35 0° 247° (WSW) 5,733 14.4 -32.2°
Reaches altitude 10° 21:08:03 10° 240° (WSW) 5,098 13.9 -32.6°
Maximum altitude 21:22:48 43° 176° (S) 4,196 12.8 -34.5°
Enters shadow 21:25:11 42° 163° (SSE) 4,360 12.8 -34.7°
